Aeroporto :
LOGIN :

Iscrizione | Disclaimer

   EN    FR    IT 

 










Sommario :    VFR   VFR Marginale   IFR   IFR Intensivo   IFR Molto Intensivo
Visibilità : 
Base nubi : 
>= 8 km
>= 3000ft
5 / 8 km
1000 / 3000 ft
1500m / 5 km
500 / 1000 ft
800 / 1500m
200 / 500 ft
< 800m
< 200 ft
Simboli :   Temporali  Nebbia  Neve Forte  Precipitazioni Forti  Vento > 20 kt
SIGMETs :   Varie  Temporali  Ghiacco  Turbolenza  Onda orograficha  Ceneri Vulcaniche






- Altitudine del aeroporto : 1090 ft
- Codice IATA : CFE


LFLC - Clermont-Ferrand Auvergne

ULTIMO METAR :
  • 310800Z AUTO VRB02KT 9999 SCT060 17/08 Q1016 NOSIG

METARs OBSOLETI :
  • 310730Z AUTO VRB01KT CAVOK 17/08 Q1016 NOSIG
  • 310700Z AUTO 05003KT 360V090 CAVOK 17/08 Q1016 NOSIG
  • 310630Z AUTO VRB01KT CAVOK 16/08 Q1016 NOSIG
  • 310600Z AUTO VRB01KT CAVOK 14/09 Q1016 NOSIG
  • 310530Z AUTO VRB02KT CAVOK 12/08 Q1016 NOSIG

TAF TAF LFLC
Valido dal 31 a 03 ore il 01 a 03 ore UTC


310200Z 3103/0103 VRB02KT CAVOK
BECMG 3106/3109 03007KT
BECMG 3121/3124 VRB02KT
ATIS : +33 4 73 62 74 38



MetMap, La meteo Aeronautica in un colpo d'occhio ! - Copyright ORBIFLY Dicembre 2007 - Disclaimer

ORBIFLY MET'MAP TEAM :

Programmazione e sviluppo : Alexandra Zaïnal
Concezione : Baudouin d'Aumeries
Aiuto per la programmazione : Marc-Olivier Méhu
Supporto tecnico e logistico : Manuel Goepfert
Aiuto per la traduzione : Arnaldo La Scala

Contatto : metmap@orbifly.com




FONTI E CREDITI :

   NOAA